Retour au catalogue

STARLINK-34017

ActifCommunicationsVLEO
NORAD 64339·PAYLOAD·🇺🇸 United States

Lancé Jun 10, 2025 depuis Cape Canaveral Space Force Station

Loading…

Prochains Passages (prochaines 24 heures)

TLE

FraisSource: CelesTrak SupGP

Époque: Sep 15, 2026, 02:51 UTC

1 64339C 25124Y   26258.11923611  .00063083  00000+0  22851-2 0  2583
2 64339  42.9997 131.8933 0001450 273.3668   3.4862 15.27543095    15

Suivez STARLINK-34017 en temps réel avec AllMySat

Download on the App Store